(519166) = 2010 HK93 = 2010 NN118

Discovered at WISE on 2010-04-29 by WISE.

Orbit

Orbit type: Main Belt

Note: WebGL enabled browser required.

epoch2024-03-31.0
epoch JD2460400.5
perihelion date2021-10-23.57161
perihelion JD2459511.07161
argument of perihelion (°)41.75254
ascending node (°)268.97544
inclination (°)9.35618
eccentricity0.0193667
perihelion distance (AU)3.0877781
Tisserand w.r.t. Jupiter3.2
ΔV w.r.t. Earth (km/sec)11.2
semimajor axis (AU)3.1487592
mean anomaly (°)156.89376
mean daily motion (°/day)0.17639840
aphelion distance (AU)3.210
period (years)5.59
P-vector [x]0.64361112
P-vector [y]-0.73819992
P-vector [z]-0.20205344
Q-vector [x]0.74789286
Q-vector [y]0.55054746
Q-vector [z]0.37088241
absolute magnitude15.92
phase slope0.15
uncertainty0
referenceMPEC 2024-D99
observations used223
oppositions14
arc length (days)6700
first opposition used2005
last opposition used2024
residual rms (arc-secs)0.77
perturbers coarse indicatorM-v
perturbers precise indicator003Ek
first observation date used2005-08-30.0
last observation date used2024-01-03.0
computer nameMPCLINUX
Minimum Orbit Intersection Distances (in AU)
for orbit epoch: 2460400.5, reference: E2024-D99
Mercury2.63939
Venus2.36749
Earth2.07752
Mars1.59262
Jupiter1.88999
Saturn5.84628
Uranus15.2943
Neptune26.7127

Observations

228 total observations over interval: 2005 08 30.36413 – 2024 01 03.352511
These data are available for download (format description).

Date (UT) J2000 RA J2000 Dec Magn Location Ref
2005 08 30.36413 23 37 48.25 +12 04 35.5 20.6 R 644 – Palomar Mountain/NEAT MPS 884942
2005 08 30.38829 23 37 47.26 +12 04 32.6 20.3 R 644 – Palomar Mountain/NEAT MPS 884942
2005 08 30.42007 23 37 45.96 +12 04 29.0 20.2 R 644 – Palomar Mountain/NEAT MPS 884942
2006 12 23.37515 04 41 13.41 +24 57 53.4 20.0 V G96 – Mt. Lemmon Survey MPS 884942
2006 12 23.38129 04 41 13.09 +24 57 51.8 20.4 V G96 – Mt. Lemmon Survey MPS 884942
2006 12 23.38737 04 41 12.76 +24 57 50.0 20.8 V G96 – Mt. Lemmon Survey MPS 884942
2006 12 23.39347 04 41 12.48 +24 57 48.2 20.4 V G96 – Mt. Lemmon Survey MPS 884942
2007 12 17.50097 10 24 30.38 +00 58 00.4 21.7 V G96 – Mt. Lemmon Survey MPS 884942
2007 12 17.50779 10 24 30.49 +00 57 58.0 21.3 V G96 – Mt. Lemmon Survey MPS 884942
2007 12 17.51469 10 24 30.56 +00 57 56.0 21.9 V G96 – Mt. Lemmon Survey MPS 884942
2007 12 17.52162 10 24 30.63 +00 57 53.6 21.5 V G96 – Mt. Lemmon Survey MPS 884942
2010 04 29.763108 20 46 57.48 -14 08 30.5   C51 – WISE MPS 325153
2010 04 29.76311 20 46 57.50 -14 08 30.1   C51 – WISE MPS 325153
2010 04 29.895412 20 47 02.89 -14 07 46.2   C51 – WISE MPS 325153
2010 04 30.027716 20 47 08.46 -14 07 01.5   C51 – WISE MPS 325153
2010 04 30.093806 20 47 11.19 -14 06 38.4   C51 – WISE MPS 325153
2010 04 30.160021 20 47 13.92 -14 06 15.4   C51 – WISE MPS 325153
2010 04 30.490718 20 47 27.49 -14 04 25.8   C51 – WISE MPS 325153
2010 04 30.623022 20 47 33.07 -14 03 42.2   C51 – WISE MPS 325153
2010 04 30.623149 20 47 33.03 -14 03 41.9   C51 – WISE MPS 325153
2010 04 30.755326 20 47 38.40 -14 02 56.9   C51 – WISE MPS 325153
2010 04 30.755454 20 47 38.41 -14 02 58.9   C51 – WISE MPS 325153
2010 04 30.887631 20 47 43.75 -14 02 13.1   C51 – WISE MPS 325153
2010 04 30.88776 20 47 43.55 -14 02 14.3   C51 – WISE MPS 325153
2010 07 06.43920 20 51 05.07 -09 57 07.7 20.5 V G96 – Mt. Lemmon Survey MPS 884942
2010 07 06.44625 20 51 04.82 -09 57 07.9 20.7 V G96 – Mt. Lemmon Survey MPS 884942
2010 07 06.45346 20 51 04.53 -09 57 06.9 21.0 V G96 – Mt. Lemmon Survey MPS 884942
2010 07 06.46069 20 51 04.24 -09 57 06.6 20.4 V G96 – Mt. Lemmon Survey MPS 884942
2010 10 10.08973 20 11 39.58 -11 23 25.4 21.7 V G96 – Mt. Lemmon Survey MPS 884942
2010 10 10.09552 20 11 39.69 -11 23 25.8 21.8 V G96 – Mt. Lemmon Survey MPS 884942
2010 10 10.10138 20 11 39.84 -11 23 25.2 20.9 V G96 – Mt. Lemmon Survey MPS 884942
2010 10 10.10718 20 11 40.02 -11 23 25.7 21.8 V G96 – Mt. Lemmon Survey MPS 884942
2010 10 29.09664 20 22 49.86 -11 09 44.0 21.6 V 691 – Steward Observatory, Kitt Peak-Spacewatch MPS 884942
2010 10 29.11812 20 22 50.77 -11 09 42.7 21.1 V 691 – Steward Observatory, Kitt Peak-Spacewatch MPS 884942
2010 10 29.14002 20 22 51.72 -11 09 40.6 21.8 V 691 – Steward Observatory, Kitt Peak-Spacewatch MPS 884942
2011 09 27.31145 01 48 49.96 +23 56 57.0 20.5 V G96 – Mt. Lemmon Survey MPS 884942
2011 09 27.31709 01 48 49.75 +23 56 56.0 20.5 V G96 – Mt. Lemmon Survey MPS 884942
2011 09 27.32287 01 48 49.53 +23 56 55.6 20.4 V G96 – Mt. Lemmon Survey MPS 884942
2011 09 27.32859 01 48 49.32 +23 56 54.9 20.2 V G96 – Mt. Lemmon Survey MPS 884942
2011 10 21.33832 01 31 29.10 +22 23 15.2 20.1 V G96 – Mt. Lemmon Survey MPS 884942
2011 10 21.34754 01 31 28.66 +22 23 11.9 20.1 V G96 – Mt. Lemmon Survey MPS 884942
2011 10 21.35690 01 31 28.20 +22 23 08.6 20.3 V G96 – Mt. Lemmon Survey MPS 884942
2011 10 21.36619 01 31 27.76 +22 23 05.3 19.9 V G96 – Mt. Lemmon Survey MPS 884942
2012 12 04.38613 07 32 41.79 +19 15 45.9   691 – Steward Observatory, Kitt Peak-Spacewatch MPS 888596
2012 12 04.40381 07 32 41.25 +19 15 43.0   691 – Steward Observatory, Kitt Peak-Spacewatch MPS 888596
2012 12 04.42150 07 32 40.78 +19 15 41.6   691 – Steward Observatory, Kitt Peak-Spacewatch MPS 888596
2012 12 08.32492 07 30 41.13 +19 09 01.9 21.0 V 691 – Steward Observatory, Kitt Peak-Spacewatch MPS 884942
2012 12 08.34260 07 30 40.54 +19 09 00.1 20.9 V 691 – Steward Observatory, Kitt Peak-Spacewatch MPS 884942
2012 12 08.36029 07 30 39.95 +19 08 58.0 21.3 V 691 – Steward Observatory, Kitt Peak-Spacewatch MPS 884942
2012 12 16.98651 07 25 09.03 +18 56 13.5 21.0 R J04 – ESA Optical Ground Station, Tenerife MPS 884942
2012 12 16.99808 07 25 08.48 +18 56 13.3 20.5 R J04 – ESA Optical Ground Station, Tenerife MPS 884942
2012 12 17.00966 07 25 07.98 +18 56 12.0 20.4 R J04 – ESA Optical Ground Station, Tenerife MPS 884942
2012 12 17.02123 07 25 07.43 +18 56 11.2 21.0 R J04 – ESA Optical Ground Station, Tenerife MPS 884942
2013 12 14.63794 11 55 46.490 -09 21 39.50 22.1 w F51 – Pan-STARRS 1, Haleakala MPS 884942
2013 12 14.64194 11 55 46.641 -09 21 41.65 21.8 w F51 – Pan-STARRS 1, Haleakala MPS 884942
2013 12 14.64995 11 55 47.008 -09 21 45.32 21.7 w F51 – Pan-STARRS 1, Haleakala MPS 884942
2014 03 26.24931 11 42 52.55 -12 55 09.7 20.1 V G96 – Mt. Lemmon Survey MPS 888596
2014 03 26.25386 11 42 52.33 -12 55 08.3 20.1 V G96 – Mt. Lemmon Survey MPS 888596
2014 03 26.25842 11 42 52.14 -12 55 06.5 20.5 V G96 – Mt. Lemmon Survey MPS 888596
2014 03 26.26298 11 42 51.95 -12 55 05.5 20.2 V G96 – Mt. Lemmon Survey MPS 888596
2014 05 24.26477 11 26 22.326 -08 16 28.13 21.2 w F51 – Pan-STARRS 1, Haleakala MPS 884942
2014 05 24.27805 11 26 22.533 -08 16 26.45 21.2 w F51 – Pan-STARRS 1, Haleakala MPS 884942
2014 05 24.30460 11 26 22.972 -08 16 23.16 21.3 w F51 – Pan-STARRS 1, Haleakala MPS 884942
2016 06 12.59131 22 50 52.57 +01 58 27.8 21.8 y T09 – Subaru Telescope, Maunakea MPS 2111708
2016 06 12.59675 22 50 52.70 +01 58 29.8 21.3 y T09 – Subaru Telescope, Maunakea MPS 2111708
2016 06 12.59951 22 50 52.78 +01 58 31.0 21.6 y T09 – Subaru Telescope, Maunakea MPS 2111708
2016 06 12.60496 22 50 52.91 +01 58 33.2 21.6 y T09 – Subaru Telescope, Maunakea MPS 2111708
2016 08 04.49162 22 49 34.74 +05 30 28.7 20.4 z T09 – Subaru Telescope, Maunakea MPS 2144978
2016 08 04.53374 22 49 33.35 +05 30 29.5 20.5 z T09 – Subaru Telescope, Maunakea MPS 2144978
2016 08 04.57999 22 49 31.82 +05 30 30.9 20.4 z T09 – Subaru Telescope, Maunakea MPS 2144978
2016 08 14.47089 22 43 38.341 +05 26 43.75 20.2 r F51 – Pan-STARRS 1, Haleakala MPS 884942
2016 08 14.48291 22 43 37.852 +05 26 42.91 20.4 r F51 – Pan-STARRS 1, Haleakala MPS 884942
2016 08 14.49496 22 43 37.344 +05 26 42.08 20.4 r F51 – Pan-STARRS 1, Haleakala MPS 884942
2016 08 14.50699 22 43 36.860 +05 26 41.26 20.4 r F51 – Pan-STARRS 1, Haleakala MPS 884942
2016 08 29.28339 22 32 59.63 +04 53 32.4 20.0 V G96 – Mt. Lemmon Survey MPS 884942
2016 08 29.29028 22 32 59.31 +04 53 30.9 20.2 V G96 – Mt. Lemmon Survey MPS 884942
2016 08 29.29711 22 32 58.97 +04 53 29.7 20.1 V G96 – Mt. Lemmon Survey MPS 884942
2016 08 29.30395 22 32 58.67 +04 53 28.4 20.1 V G96 – Mt. Lemmon Survey MPS 884942
2016 08 29.34484 22 32 56.75 +04 53 20.6 20.2 V G96 – Mt. Lemmon Survey MPS 884942
2016 08 29.35428 22 32 56.30 +04 53 18.3 19.9 V G96 – Mt. Lemmon Survey MPS 884942
2016 08 29.36378 22 32 55.86 +04 53 16.8 19.7 V G96 – Mt. Lemmon Survey MPS 884942
2016 08 29.37325 22 32 55.49 +04 53 13.6 19.5 V G96 – Mt. Lemmon Survey MPS 884942
2016 08 31.64571 22 31 12.88 +04 45 35.1 20.7 R D29 – Purple Mountain Observatory, XuYi Station MPS 884942
2016 08 31.66339 22 31 12.05 +04 45 30.2 20.2 R D29 – Purple Mountain Observatory, XuYi Station MPS 884942
2016 08 31.68107 22 31 11.21 +04 45 26.9 20.0 R D29 – Purple Mountain Observatory, XuYi Station MPS 884942
2016 09 05.36284 22 27 41.26 +04 27 56.6 20.0 V G96 – Mt. Lemmon Survey MPS 884942
2016 09 05.36668 22 27 41.04 +04 27 55.7 19.8 V G96 – Mt. Lemmon Survey MPS 884942
2016 09 05.37050 22 27 40.91 +04 27 54.5 19.7 V G96 – Mt. Lemmon Survey MPS 884942
2016 09 05.37431 22 27 40.72 +04 27 53.5 19.6 V G96 – Mt. Lemmon Survey MPS 884942
2016 11 03.26645 22 10 20.660 +00 41 45.56 21.3 w F51 – Pan-STARRS 1, Haleakala MPS 888596
2016 11 03.27966 22 10 20.851 +00 41 44.37 21.2 w F51 – Pan-STARRS 1, Haleakala MPS 888596
2016 11 03.29285 22 10 21.082 +00 41 42.98 21.3 w F51 – Pan-STARRS 1, Haleakala MPS 888596
2016 11 03.30616 22 10 21.303 +00 41 41.79 21.1 w F51 – Pan-STARRS 1, Haleakala MPS 888596
2017 10 28.37592 04 11 48.22 +28 19 04.8 20.9 G G96 – Mt. Lemmon Survey MPS 888596
2017 10 28.38261 04 11 47.95 +28 19 03.9 20.7 G G96 – Mt. Lemmon Survey MPS 888596
2017 10 28.38927 04 11 47.72 +28 19 02.9 20.9 G G96 – Mt. Lemmon Survey MPS 888596
2017 10 28.39591 04 11 47.45 +28 19 02.0 20.4 G G96 – Mt. Lemmon Survey MPS 888596
2017 11 19.33836 03 54 47.922 +27 04 41.16 20.2 w F51 – Pan-STARRS 1, Haleakala MPS 888596
